owner,sensor,date,latitude,longitude,relative_humidity,qcFlag 
COMPS,ioos:station:USF.COMPS:ARP:1,2016-04-01T00:00:00Z,28.4330,-82.6670,78.44,1111122 
COMPS,ioos:station:USF.COMPS:ARP:1,2016-04-01T00:06:00Z,28.4330,-82.6670,78.54,1111122 
COMPS,ioos:station:USF.COMPS:ARP:1,2016-04-01T00:12:00Z,28.4330,-82.6670,78.77,1111122 
COMPS,ioos:station:USF.COMPS:ARP:1,2016-04-01T00:18:00Z,28.4330,-82.6670,79.12,1111122 
COMPS,ioos:station:USF.COMPS:ARP:1,2016-04-01T00:24:00Z,28.4330,-82.6670,79.22,1111122 
COMPS,ioos:station:USF.COMPS:ARP:1,2016-04-01T00:30:00Z,28.4330,-82.6670,79.68,1111122 
COMPS,ioos:station:USF.COMPS:ARP:1,2016-04-01T00:36:00Z,28.4330,-82.6670,80.39,1111122 
COMPS,ioos:station:USF.COMPS:ARP:1,2016-04-01T00:42:00Z,28.4330,-82.6670,80.65,1111122 
COMPS,ioos:station:USF.COMPS:ARP:1,2016-04-01T00:48:00Z,28.4330,-82.6670,80.86,1111122 
COMPS,ioos:station:USF.COMPS:ARP:1,2016-04-01T00:54:00Z,28.4330,-82.6670,82.12,1111122 
COMPS,ioos:station:USF.COMPS:ARP:1,2016-04-01T01:00:00Z,28.4330,-82.6670,82.81,1111122 
COMPS,ioos:station:USF.COMPS:ARP:1,2016-04-01T01:06:00Z,28.4330,-82.6670,83.11,1111122 
COMPS,ioos:station:USF.COMPS:ARP:1,2016-04-01T01:12:00Z,28.4330,-82.6670,83.84,1111122 
COMPS,ioos:station:USF.COMPS:ARP:1,2016-04-01T01:18:00Z,28.4330,-82.6670,84.54,1111122 
COMPS,ioos:station:USF.COMPS:ARP:1,2016-04-01T01:24:00Z,28.4330,-82.6670,85.39,1111122 
COMPS,ioos:station:USF.COMPS:ARP:1,2016-04-01T01:30:00Z,28.4330,-82.6670,85.57,1111122 
COMPS,ioos:station:USF.COMPS:ARP:1,2016-04-01T01:36:00Z,28.4330,-82.6670,86.07,1111122 
COMPS,ioos:station:USF.COMPS:ARP:1,2016-04-01T01:42:00Z,28.4330,-82.6670,86.71,1111122 
COMPS,ioos:station:USF.COMPS:ARP:1,2016-04-01T01:48:00Z,28.4330,-82.6670,86.36,1111122 
COMPS,ioos:station:USF.COMPS:ARP:1,2016-04-01T01:54:00Z,28.4330,-82.6670,85.62,1111122 
COMPS,ioos:station:USF.COMPS:ARP:1,2016-04-01T02:00:00Z,28.4330,-82.6670,85.7,1111122 
COMPS,ioos:station:USF.COMPS:ARP:1,2016-04-01T02:06:00Z,28.4330,-82.6670,86.03,1111122 
COMPS,ioos:station:USF.COMPS:ARP:1,2016-04-01T02:12:00Z,28.4330,-82.6670,86.48,1111122 
COMPS,ioos:station:USF.COMPS:ARP:1,2016-04-01T02:18:00Z,28.4330,-82.6670,86.92,1111122 
COMPS,ioos:station:USF.COMPS:ARP:1,2016-04-01T02:24:00Z,28.4330,-82.6670,87.38,1111122 
COMPS,ioos:station:USF.COMPS:ARP:1,2016-04-01T02:30:00Z,28.4330,-82.6670,87.91,1111122 
COMPS,ioos:station:USF.COMPS:ARP:1,2016-04-01T02:36:00Z,28.4330,-82.6670,88.65,1111122 
COMPS,ioos:station:USF.COMPS:ARP:1,2016-04-01T02:42:00Z,28.4330,-82.6670,89.43,1111122 
COMPS,ioos:station:USF.COMPS:ARP:1,2016-04-01T02:48:00Z,28.4330,-82.6670,89.56,1111122 
COMPS,ioos:station:USF.COMPS:ARP:1,2016-04-01T02:54:00Z,28.4330,-82.6670,89.27,1111122 
COMPS,ioos:station:USF.COMPS:ARP:1,2016-04-01T03:00:00Z,28.4330,-82.6670,89.2,1111122 
COMPS,ioos:station:USF.COMPS:ARP:1,2016-04-01T03:06:00Z,28.4330,-82.6670,89.12,1111122 
COMPS,ioos:station:USF.COMPS:ARP:1,2016-04-01T03:12:00Z,28.4330,-82.6670,89.12,1111122 
COMPS,ioos:station:USF.COMPS:ARP:1,2016-04-01T03:18:00Z,28.4330,-82.6670,89.19,1111122 
COMPS,ioos:station:USF.COMPS:ARP:1,2016-04-01T03:24:00Z,28.4330,-82.6670,89.18,1111122 
COMPS,ioos:station:USF.COMPS:ARP:1,2016-04-01T03:30:00Z,28.4330,-82.6670,89.14,1111122 
COMPS,ioos:station:USF.COMPS:ARP:1,2016-04-01T03:36:00Z,28.4330,-82.6670,89.3,1111122 
COMPS,ioos:station:USF.COMPS:ARP:1,2016-04-01T03:42:00Z,28.4330,-82.6670,89.3,1111122 
COMPS,ioos:station:USF.COMPS:ARP:1,2016-04-01T03:48:00Z,28.4330,-82.6670,89.6,1111122 
COMPS,ioos:station:USF.COMPS:ARP:1,2016-04-01T03:54:00Z,28.4330,-82.6670,89.84,1111122 
COMPS,ioos:station:USF.COMPS:ARP:1,2016-04-01T04:00:00Z,28.4330,-82.6670,90.11,1111122 
COMPS,ioos:station:USF.COMPS:ARP:1,2016-04-01T04:06:00Z,28.4330,-82.6670,90.1,1111122 
COMPS,ioos:station:USF.COMPS:ARP:1,2016-04-01T04:12:00Z,28.4330,-82.6670,90.24,1111122 
COMPS,ioos:station:USF.COMPS:ARP:1,2016-04-01T04:18:00Z,28.4330,-82.6670,90.65,1111122 
COMPS,ioos:station:USF.COMPS:ARP:1,2016-04-01T04:24:00Z,28.4330,-82.6670,91.06,1111122 
COMPS,ioos:station:USF.COMPS:ARP:1,2016-04-01T04:30:00Z,28.4330,-82.6670,91.43,1111122 
COMPS,ioos:station:USF.COMPS:ARP:1,2016-04-01T04:36:00Z,28.4330,-82.6670,91.94,1111122 
COMPS,ioos:station:USF.COMPS:ARP:1,2016-04-01T04:42:00Z,28.4330,-82.6670,92.41,1111122 
COMPS,ioos:station:USF.COMPS:ARP:1,2016-04-01T04:48:00Z,28.4330,-82.6670,92.73,1111122 
COMPS,ioos:station:USF.COMPS:ARP:1,2016-04-01T04:54:00Z,28.4330,-82.6670,92.92,1111122 
COMPS,ioos:station:USF.COMPS:ARP:1,2016-04-01T05:00:00Z,28.4330,-82.6670,93.18,1111122 
COMPS,ioos:station:USF.COMPS:ARP:1,2016-04-01T05:06:00Z,28.4330,-82.6670,93.37,1111122 
COMPS,ioos:station:USF.COMPS:ARP:1,2016-04-01T05:12:00Z,28.4330,-82.6670,93.47,1111122 
COMPS,ioos:station:USF.COMPS:ARP:1,2016-04-01T05:18:00Z,28.4330,-82.6670,93.68,1111122 
COMPS,ioos:station:USF.COMPS:ARP:1,2016-04-01T05:24:00Z,28.4330,-82.6670,93.79,1111122 
COMPS,ioos:station:USF.COMPS:ARP:1,2016-04-01T05:30:00Z,28.4330,-82.6670,93.94,1111122 
COMPS,ioos:station:USF.COMPS:ARP:1,2016-04-01T05:36:00Z,28.4330,-82.6670,94.11,1111122 
COMPS,ioos:station:USF.COMPS:ARP:1,2016-04-01T05:42:00Z,28.4330,-82.6670,94.16,1111122 
COMPS,ioos:station:USF.COMPS:ARP:1,2016-04-01T05:48:00Z,28.4330,-82.6670,94.27,1111122 
COMPS,ioos:station:USF.COMPS:ARP:1,2016-04-01T05:54:00Z,28.4330,-82.6670,94.35,1111122 
COMPS,ioos:station:USF.COMPS:ARP:1,2016-04-01T06:00:00Z,28.4330,-82.6670,94.51,1111122 
COMPS,ioos:station:USF.COMPS:ARP:1,2016-04-01T06:06:00Z,28.4330,-82.6670,94.62,1111122 
COMPS,ioos:station:USF.COMPS:ARP:1,2016-04-01T06:12:00Z,28.4330,-82.6670,94.74,1111122 
COMPS,ioos:station:USF.COMPS:ARP:1,2016-04-01T06:18:00Z,28.4330,-82.6670,94.79,1111122 
COMPS,ioos:station:USF.COMPS:ARP:1,2016-04-01T06:24:00Z,28.4330,-82.6670,94.92,1111122 
COMPS,ioos:station:USF.COMPS:ARP:1,2016-04-01T06:30:00Z,28.4330,-82.6670,94.91,1111122 
COMPS,ioos:station:USF.COMPS:ARP:1,2016-04-01T06:36:00Z,28.4330,-82.6670,94.9,1111122 
COMPS,ioos:station:USF.COMPS:ARP:1,2016-04-01T06:42:00Z,28.4330,-82.6670,94.94,1111122 
COMPS,ioos:station:USF.COMPS:ARP:1,2016-04-01T06:48:00Z,28.4330,-82.6670,94.95,1111122 
COMPS,ioos:station:USF.COMPS:ARP:1,2016-04-01T06:54:00Z,28.4330,-82.6670,94.98,1111122 
COMPS,ioos:station:USF.COMPS:ARP:1,2016-04-01T07:00:00Z,28.4330,-82.6670,95.05,1111122 
COMPS,ioos:station:USF.COMPS:ARP:1,2016-04-01T07:06:00Z,28.4330,-82.6670,95.1,1111122 
COMPS,ioos:station:USF.COMPS:ARP:1,2016-04-01T07:12:00Z,28.4330,-82.6670,95.17,1111122 
COMPS,ioos:station:USF.COMPS:ARP:1,2016-04-01T07:18:00Z,28.4330,-82.6670,95.26,1111122 
COMPS,ioos:station:USF.COMPS:ARP:1,2016-04-01T07:24:00Z,28.4330,-82.6670,95.3,1111122 
COMPS,ioos:station:USF.COMPS:ARP:1,2016-04-01T07:30:00Z,28.4330,-82.6670,95.37,1111122 
COMPS,ioos:station:USF.COMPS:ARP:1,2016-04-01T07:36:00Z,28.4330,-82.6670,95.42,1111122 
COMPS,ioos:station:USF.COMPS:ARP:1,2016-04-01T07:42:00Z,28.4330,-82.6670,95.61,1111122 
COMPS,ioos:station:USF.COMPS:ARP:1,2016-04-01T07:48:00Z,28.4330,-82.6670,95.74,1111122 
COMPS,ioos:station:USF.COMPS:ARP:1,2016-04-01T07:54:00Z,28.4330,-82.6670,95.83,1111122 
COMPS,ioos:station:USF.COMPS:ARP:1,2016-04-01T08:00:00Z,28.4330,-82.6670,95.96,1111122 
COMPS,ioos:station:USF.COMPS:ARP:1,2016-04-01T08:06:00Z,28.4330,-82.6670,96.09,1111122 
COMPS,ioos:station:USF.COMPS:ARP:1,2016-04-01T08:12:00Z,28.4330,-82.6670,96.23,1111122 
COMPS,ioos:station:USF.COMPS:ARP:1,2016-04-01T08:18:00Z,28.4330,-82.6670,96.3,1111122 
COMPS,ioos:station:USF.COMPS:ARP:1,2016-04-01T08:24:00Z,28.4330,-82.6670,96.41,1111122 
COMPS,ioos:station:USF.COMPS:ARP:1,2016-04-01T08:30:00Z,28.4330,-82.6670,96.51,1111122 
COMPS,ioos:station:USF.COMPS:ARP:1,2016-04-01T08:36:00Z,28.4330,-82.6670,96.66,1111122 
COMPS,ioos:station:USF.COMPS:ARP:1,2016-04-01T08:42:00Z,28.4330,-82.6670,96.72,1111122 
COMPS,ioos:station:USF.COMPS:ARP:1,2016-04-01T08:48:00Z,28.4330,-82.6670,96.78,1111122 
COMPS,ioos:station:USF.COMPS:ARP:1,2016-04-01T08:54:00Z,28.4330,-82.6670,96.89,1111122 
COMPS,ioos:station:USF.COMPS:ARP:1,2016-04-01T09:00:00Z,28.4330,-82.6670,96.97,1111122 
COMPS,ioos:station:USF.COMPS:ARP:1,2016-04-01T09:06:00Z,28.4330,-82.6670,97.07,1111122 
COMPS,ioos:station:USF.COMPS:ARP:1,2016-04-01T09:12:00Z,28.4330,-82.6670,97.14,1111122 
COMPS,ioos:station:USF.COMPS:ARP:1,2016-04-01T09:18:00Z,28.4330,-82.6670,97.15,1111122 
COMPS,ioos:station:USF.COMPS:ARP:1,2016-04-01T09:24:00Z,28.4330,-82.6670,97.23,1111122 
COMPS,ioos:station:USF.COMPS:ARP:1,2016-04-01T09:30:00Z,28.4330,-82.6670,97.25,1111122 
COMPS,ioos:station:USF.COMPS:ARP:1,2016-04-01T09:36:00Z,28.4330,-82.6670,97.28,1111122 
COMPS,ioos:station:USF.COMPS:ARP:1,2016-04-01T09:42:00Z,28.4330,-82.6670,97.29,1111122 
COMPS,ioos:station:USF.COMPS:ARP:1,2016-04-01T09:48:00Z,28.4330,-82.6670,97.34,1111122 
COMPS,ioos:station:USF.COMPS:ARP:1,2016-04-01T09:54:00Z,28.4330,-82.6670,97.3,1111122 
COMPS,ioos:station:USF.COMPS:ARP:1,2016-04-01T10:00:00Z,28.4330,-82.6670,97.36,1111122 
COMPS,ioos:station:USF.COMPS:ARP:1,2016-04-01T10:06:00Z,28.4330,-82.6670,97.39,1111122 
COMPS,ioos:station:USF.COMPS:ARP:1,2016-04-01T10:12:00Z,28.4330,-82.6670,97.39,1111122 
COMPS,ioos:station:USF.COMPS:ARP:1,2016-04-01T10:18:00Z,28.4330,-82.6670,97.43,1111122 
COMPS,ioos:station:USF.COMPS:ARP:1,2016-04-01T10:24:00Z,28.4330,-82.6670,97.43,1111122 
COMPS,ioos:station:USF.COMPS:ARP:1,2016-04-01T10:30:00Z,28.4330,-82.6670,97.45,1111122 
COMPS,ioos:station:USF.COMPS:ARP:1,2016-04-01T10:36:00Z,28.4330,-82.6670,97.47,1111122 
COMPS,ioos:station:USF.COMPS:ARP:1,2016-04-01T10:42:00Z,28.4330,-82.6670,97.45,1111122 
COMPS,ioos:station:USF.COMPS:ARP:1,2016-04-01T10:48:00Z,28.4330,-82.6670,97.46,1111122 
COMPS,ioos:station:USF.COMPS:ARP:1,2016-04-01T10:54:00Z,28.4330,-82.6670,97.46,1111122 
COMPS,ioos:station:USF.COMPS:ARP:1,2016-04-01T11:00:00Z,28.4330,-82.6670,97.5,1111122 
COMPS,ioos:station:USF.COMPS:ARP:1,2016-04-01T11:06:00Z,28.4330,-82.6670,97.49,1111122 
COMPS,ioos:station:USF.COMPS:ARP:1,2016-04-01T11:12:00Z,28.4330,-82.6670,97.51,1111122 
COMPS,ioos:station:USF.COMPS:ARP:1,2016-04-01T11:18:00Z,28.4330,-82.6670,97.5,1111122 
COMPS,ioos:station:USF.COMPS:ARP:1,2016-04-01T11:24:00Z,28.4330,-82.6670,97.46,1111122 
COMPS,ioos:station:USF.COMPS:ARP:1,2016-04-01T11:30:00Z,28.4330,-82.6670,97.46,1111122 
COMPS,ioos:station:USF.COMPS:ARP:1,2016-04-01T11:36:00Z,28.4330,-82.6670,97.42,1111122 
COMPS,ioos:station:USF.COMPS:ARP:1,2016-04-01T11:42:00Z,28.4330,-82.6670,97.39,1111122 
COMPS,ioos:station:USF.COMPS:ARP:1,2016-04-01T11:48:00Z,28.4330,-82.6670,97.5,1111122 
COMPS,ioos:station:USF.COMPS:ARP:1,2016-04-01T11:54:00Z,28.4330,-82.6670,97.53,1111122 
COMPS,ioos:station:USF.COMPS:ARP:1,2016-04-01T12:00:00Z,28.4330,-82.6670,97.54,1111122 
COMPS,ioos:station:USF.COMPS:ARP:1,2016-04-01T12:06:00Z,28.4330,-82.6670,97.43,1111122 
COMPS,ioos:station:USF.COMPS:ARP:1,2016-04-01T12:12:00Z,28.4330,-82.6670,97.28,1111122 
COMPS,ioos:station:USF.COMPS:ARP:1,2016-04-01T12:18:00Z,28.4330,-82.6670,97.02,1111122 
COMPS,ioos:station:USF.COMPS:ARP:1,2016-04-01T12:24:00Z,28.4330,-82.6670,96.71,1111122 
COMPS,ioos:station:USF.COMPS:ARP:1,2016-04-01T12:30:00Z,28.4330,-82.6670,96.28,1111122 
COMPS,ioos:station:USF.COMPS:ARP:1,2016-04-01T12:36:00Z,28.4330,-82.6670,95.66,1111122 
COMPS,ioos:station:USF.COMPS:ARP:1,2016-04-01T12:42:00Z,28.4330,-82.6670,94.77,1111122 
COMPS,ioos:station:USF.COMPS:ARP:1,2016-04-01T12:48:00Z,28.4330,-82.6670,93.56,1111122 
COMPS,ioos:station:USF.COMPS:ARP:1,2016-04-01T12:54:00Z,28.4330,-82.6670,92.25,1111122 
COMPS,ioos:station:USF.COMPS:ARP:1,2016-04-01T13:00:00Z,28.4330,-82.6670,90.58,1111122 
COMPS,ioos:station:USF.COMPS:ARP:1,2016-04-01T13:06:00Z,28.4330,-82.6670,89.49,1111122 
COMPS,ioos:station:USF.COMPS:ARP:1,2016-04-01T13:12:00Z,28.4330,-82.6670,88.46,1111122 
COMPS,ioos:station:USF.COMPS:ARP:1,2016-04-01T13:18:00Z,28.4330,-82.6670,87.11,1111122 
COMPS,ioos:station:USF.COMPS:ARP:1,2016-04-01T13:24:00Z,28.4330,-82.6670,86.02,1111122 
COMPS,ioos:station:USF.COMPS:ARP:1,2016-04-01T13:30:00Z,28.4330,-82.6670,85.23,1111122 
COMPS,ioos:station:USF.COMPS:ARP:1,2016-04-01T13:36:00Z,28.4330,-82.6670,84.64,1111122 
COMPS,ioos:station:USF.COMPS:ARP:1,2016-04-01T13:42:00Z,28.4330,-82.6670,83.63,1111122 
COMPS,ioos:station:USF.COMPS:ARP:1,2016-04-01T13:48:00Z,28.4330,-82.6670,82.78,1111122 
COMPS,ioos:station:USF.COMPS:ARP:1,2016-04-01T13:54:00Z,28.4330,-82.6670,81.93,1111122 
COMPS,ioos:station:USF.COMPS:ARP:1,2016-04-01T14:00:00Z,28.4330,-82.6670,80.98,1111122 
COMPS,ioos:station:USF.COMPS:ARP:1,2016-04-01T14:06:00Z,28.4330,-82.6670,79.4,1111122 
COMPS,ioos:station:USF.COMPS:ARP:1,2016-04-01T14:12:00Z,28.4330,-82.6670,78.3,1111122 
COMPS,ioos:station:USF.COMPS:ARP:1,2016-04-01T14:18:00Z,28.4330,-82.6670,77.97,1111122 
COMPS,ioos:station:USF.COMPS:ARP:1,2016-04-01T14:24:00Z,28.4330,-82.6670,77.74,1111122 
COMPS,ioos:station:USF.COMPS:ARP:1,2016-04-01T14:30:00Z,28.4330,-82.6670,77.6,1111122 
COMPS,ioos:station:USF.COMPS:ARP:1,2016-04-01T14:36:00Z,28.4330,-82.6670,77.39,1111122 
COMPS,ioos:station:USF.COMPS:ARP:1,2016-04-01T14:42:00Z,28.4330,-82.6670,76.95,1111122 
COMPS,ioos:station:USF.COMPS:ARP:1,2016-04-01T14:48:00Z,28.4330,-82.6670,76.87,1111122 
COMPS,ioos:station:USF.COMPS:ARP:1,2016-04-01T14:54:00Z,28.4330,-82.6670,77.43,1111122 
COMPS,ioos:station:USF.COMPS:ARP:1,2016-04-01T15:00:00Z,28.4330,-82.6670,76.67,1111122 
COMPS,ioos:station:USF.COMPS:ARP:1,2016-04-01T15:06:00Z,28.4330,-82.6670,74.81,1111122 
COMPS,ioos:station:USF.COMPS:ARP:1,2016-04-01T15:12:00Z,28.4330,-82.6670,74.36,1111122 
COMPS,ioos:station:USF.COMPS:ARP:1,2016-04-01T15:18:00Z,28.4330,-82.6670,74.19,1111122 
COMPS,ioos:station:USF.COMPS:ARP:1,2016-04-01T15:24:00Z,28.4330,-82.6670,74.96,1111122 
COMPS,ioos:station:USF.COMPS:ARP:1,2016-04-01T15:30:00Z,28.4330,-82.6670,74.87,1111122 
COMPS,ioos:station:USF.COMPS:ARP:1,2016-04-01T15:36:00Z,28.4330,-82.6670,74.57,1111122 
COMPS,ioos:station:USF.COMPS:ARP:1,2016-04-01T15:42:00Z,28.4330,-82.6670,73.25,1111122 
COMPS,ioos:station:USF.COMPS:ARP:1,2016-04-01T15:48:00Z,28.4330,-82.6670,72.81,1111122 
COMPS,ioos:station:USF.COMPS:ARP:1,2016-04-01T15:54:00Z,28.4330,-82.6670,71.96,1111122 
COMPS,ioos:station:USF.COMPS:ARP:1,2016-04-01T16:00:00Z,28.4330,-82.6670,71.79,1111122 
COMPS,ioos:station:USF.COMPS:ARP:1,2016-04-01T16:06:00Z,28.4330,-82.6670,75.61,1111122 
COMPS,ioos:station:USF.COMPS:ARP:1,2016-04-01T16:12:00Z,28.4330,-82.6670,79.02,1111122 
COMPS,ioos:station:USF.COMPS:ARP:1,2016-04-01T16:18:00Z,28.4330,-82.6670,78.67,1111122 
COMPS,ioos:station:USF.COMPS:ARP:1,2016-04-01T16:24:00Z,28.4330,-82.6670,77.63,1111122 
COMPS,ioos:station:USF.COMPS:ARP:1,2016-04-01T16:30:00Z,28.4330,-82.6670,77.0,1111122 
COMPS,ioos:station:USF.COMPS:ARP:1,2016-04-01T16:36:00Z,28.4330,-82.6670,73.33,1111122 
COMPS,ioos:station:USF.COMPS:ARP:1,2016-04-01T16:42:00Z,28.4330,-82.6670,72.78,1111122 
COMPS,ioos:station:USF.COMPS:ARP:1,2016-04-01T16:48:00Z,28.4330,-82.6670,71.4,1111122 
COMPS,ioos:station:USF.COMPS:ARP:1,2016-04-01T16:54:00Z,28.4330,-82.6670,71.31,1111122 
COMPS,ioos:station:USF.COMPS:ARP:1,2016-04-01T17:00:00Z,28.4330,-82.6670,70.76,1111122 
COMPS,ioos:station:USF.COMPS:ARP:1,2016-04-01T17:06:00Z,28.4330,-82.6670,71.4,1111122 
COMPS,ioos:station:USF.COMPS:ARP:1,2016-04-01T17:12:00Z,28.4330,-82.6670,72.38,1111122 
COMPS,ioos:station:USF.COMPS:ARP:1,2016-04-01T17:18:00Z,28.4330,-82.6670,73.89,1111122 
COMPS,ioos:station:USF.COMPS:ARP:1,2016-04-01T17:24:00Z,28.4330,-82.6670,75.37,1111122 
COMPS,ioos:station:USF.COMPS:ARP:1,2016-04-01T17:30:00Z,28.4330,-82.6670,76.95,1111122 
COMPS,ioos:station:USF.COMPS:ARP:1,2016-04-01T17:36:00Z,28.4330,-82.6670,76.2,1111122 
COMPS,ioos:station:USF.COMPS:ARP:1,2016-04-01T17:42:00Z,28.4330,-82.6670,75.58,1111122 
COMPS,ioos:station:USF.COMPS:ARP:1,2016-04-01T17:48:00Z,28.4330,-82.6670,76.47,1111122 
COMPS,ioos:station:USF.COMPS:ARP:1,2016-04-01T17:54:00Z,28.4330,-82.6670,76.36,1111122 
COMPS,ioos:station:USF.COMPS:ARP:1,2016-04-01T18:00:00Z,28.4330,-82.6670,75.44,1111122 
COMPS,ioos:station:USF.COMPS:ARP:1,2016-04-01T18:06:00Z,28.4330,-82.6670,74.53,1111122 
COMPS,ioos:station:USF.COMPS:ARP:1,2016-04-01T18:12:00Z,28.4330,-82.6670,75.98,1111122 
COMPS,ioos:station:USF.COMPS:ARP:1,2016-04-01T18:18:00Z,28.4330,-82.6670,78.45,1111122 
COMPS,ioos:station:USF.COMPS:ARP:1,2016-04-01T18:24:00Z,28.4330,-82.6670,79.69,1111122 
COMPS,ioos:station:USF.COMPS:ARP:1,2016-04-01T18:30:00Z,28.4330,-82.6670,81.54,1111122 
COMPS,ioos:station:USF.COMPS:ARP:1,2016-04-01T18:36:00Z,28.4330,-82.6670,82.1,1111122 
COMPS,ioos:station:USF.COMPS:ARP:1,2016-04-01T18:42:00Z,28.4330,-82.6670,81.82,1111122 
COMPS,ioos:station:USF.COMPS:ARP:1,2016-04-01T18:48:00Z,28.4330,-82.6670,83.53,1111122 
COMPS,ioos:station:USF.COMPS:ARP:1,2016-04-01T18:54:00Z,28.4330,-82.6670,83.54,1111122 
COMPS,ioos:station:USF.COMPS:ARP:1,2016-04-01T19:00:00Z,28.4330,-82.6670,83.66,1111122 
COMPS,ioos:station:USF.COMPS:ARP:1,2016-04-01T19:06:00Z,28.4330,-82.6670,83.09,1111122 
COMPS,ioos:station:USF.COMPS:ARP:1,2016-04-01T19:12:00Z,28.4330,-82.6670,82.99,1111122 
COMPS,ioos:station:USF.COMPS:ARP:1,2016-04-01T19:18:00Z,28.4330,-82.6670,80.54,1111122 
COMPS,ioos:station:USF.COMPS:ARP:1,2016-04-01T19:24:00Z,28.4330,-82.6670,80.22,1111122 
COMPS,ioos:station:USF.COMPS:ARP:1,2016-04-01T19:30:00Z,28.4330,-82.6670,81.93,1111122 
COMPS,ioos:station:USF.COMPS:ARP:1,2016-04-01T19:36:00Z,28.4330,-82.6670,83.35,1111122 
COMPS,ioos:station:USF.COMPS:ARP:1,2016-04-01T19:42:00Z,28.4330,-82.6670,83.84,1111122 
COMPS,ioos:station:USF.COMPS:ARP:1,2016-04-01T19:48:00Z,28.4330,-82.6670,83.95,1111122 
COMPS,ioos:station:USF.COMPS:ARP:1,2016-04-01T19:54:00Z,28.4330,-82.6670,84.06,1111122 
COMPS,ioos:station:USF.COMPS:ARP:1,2016-04-01T20:00:00Z,28.4330,-82.6670,84.32,1111122 
COMPS,ioos:station:USF.COMPS:ARP:1,2016-04-01T20:06:00Z,28.4330,-82.6670,83.38,1111122 
COMPS,ioos:station:USF.COMPS:ARP:1,2016-04-01T20:12:00Z,28.4330,-82.6670,83.27,1111122 
COMPS,ioos:station:USF.COMPS:ARP:1,2016-04-01T20:18:00Z,28.4330,-82.6670,83.45,1111122 
COMPS,ioos:station:USF.COMPS:ARP:1,2016-04-01T20:24:00Z,28.4330,-82.6670,83.81,1111122 
COMPS,ioos:station:USF.COMPS:ARP:1,2016-04-01T20:30:00Z,28.4330,-82.6670,83.52,1111122 
COMPS,ioos:station:USF.COMPS:ARP:1,2016-04-01T20:36:00Z,28.4330,-82.6670,83.55,1111122 
COMPS,ioos:station:USF.COMPS:ARP:1,2016-04-01T20:42:00Z,28.4330,-82.6670,83.39,1111122 
COMPS,ioos:station:USF.COMPS:ARP:1,2016-04-01T20:48:00Z,28.4330,-82.6670,84.28,1111122 
COMPS,ioos:station:USF.COMPS:ARP:1,2016-04-01T20:54:00Z,28.4330,-82.6670,84.43,1111122 
COMPS,ioos:station:USF.COMPS:ARP:1,2016-04-01T21:00:00Z,28.4330,-82.6670,83.85,1111122 
COMPS,ioos:station:USF.COMPS:ARP:1,2016-04-01T21:06:00Z,28.4330,-82.6670,83.61,1111122 
COMPS,ioos:station:USF.COMPS:ARP:1,2016-04-01T21:12:00Z,28.4330,-82.6670,84.43,1111122 
COMPS,ioos:station:USF.COMPS:ARP:1,2016-04-01T21:18:00Z,28.4330,-82.6670,84.34,1111122 
COMPS,ioos:station:USF.COMPS:ARP:1,2016-04-01T21:24:00Z,28.4330,-82.6670,83.89,1111122 
COMPS,ioos:station:USF.COMPS:ARP:1,2016-04-01T21:30:00Z,28.4330,-82.6670,83.68,1111122 
COMPS,ioos:station:USF.COMPS:ARP:1,2016-04-01T21:36:00Z,28.4330,-82.6670,82.35,1111122 
COMPS,ioos:station:USF.COMPS:ARP:1,2016-04-01T21:42:00Z,28.4330,-82.6670,79.58,1111122 
COMPS,ioos:station:USF.COMPS:ARP:1,2016-04-01T21:48:00Z,28.4330,-82.6670,78.35,1111122 
COMPS,ioos:station:USF.COMPS:ARP:1,2016-04-01T21:54:00Z,28.4330,-82.6670,78.74,1111122 
COMPS,ioos:station:USF.COMPS:ARP:1,2016-04-01T22:00:00Z,28.4330,-82.6670,76.42,1111122 
COMPS,ioos:station:USF.COMPS:ARP:1,2016-04-01T22:06:00Z,28.4330,-82.6670,73.96,1111122 
COMPS,ioos:station:USF.COMPS:ARP:1,2016-04-01T22:12:00Z,28.4330,-82.6670,73.12,1111122 
COMPS,ioos:station:USF.COMPS:ARP:1,2016-04-01T22:18:00Z,28.4330,-82.6670,73.97,1111122 
COMPS,ioos:station:USF.COMPS:ARP:1,2016-04-01T22:24:00Z,28.4330,-82.6670,74.08,1111122 
COMPS,ioos:station:USF.COMPS:ARP:1,2016-04-01T22:30:00Z,28.4330,-82.6670,73.71,1111122 
COMPS,ioos:station:USF.COMPS:ARP:1,2016-04-01T22:36:00Z,28.4330,-82.6670,73.54,1111122 
COMPS,ioos:station:USF.COMPS:ARP:1,2016-04-01T22:42:00Z,28.4330,-82.6670,75.18,1111122 
COMPS,ioos:station:USF.COMPS:ARP:1,2016-04-01T22:48:00Z,28.4330,-82.6670,76.51,1111122 
COMPS,ioos:station:USF.COMPS:ARP:1,2016-04-01T22:54:00Z,28.4330,-82.6670,76.2,1111122 
COMPS,ioos:station:USF.COMPS:ARP:1,2016-04-01T23:00:00Z,28.4330,-82.6670,75.58,1111122 
COMPS,ioos:station:USF.COMPS:ARP:1,2016-04-01T23:06:00Z,28.4330,-82.6670,74.81,1111122 
COMPS,ioos:station:USF.COMPS:ARP:1,2016-04-01T23:12:00Z,28.4330,-82.6670,74.73,1111122 
COMPS,ioos:station:USF.COMPS:ARP:1,2016-04-01T23:18:00Z,28.4330,-82.6670,76.05,1111122 
COMPS,ioos:station:USF.COMPS:ARP:1,2016-04-01T23:24:00Z,28.4330,-82.6670,78.29,1111122 
COMPS,ioos:station:USF.COMPS:ARP:1,2016-04-01T23:30:00Z,28.4330,-82.6670,80.07,1111122 
COMPS,ioos:station:USF.COMPS:ARP:1,2016-04-01T23:36:00Z,28.4330,-82.6670,80.97,1111122 
COMPS,ioos:station:USF.COMPS:ARP:1,2016-04-01T23:42:00Z,28.4330,-82.6670,81.94,1111122 
COMPS,ioos:station:USF.COMPS:ARP:1,2016-04-01T23:48:00Z,28.4330,-82.6670,83.05,1111122 
COMPS,ioos:station:USF.COMPS:ARP:1,2016-04-01T23:54:00Z,28.4330,-82.6670,83.81,1111122 
COMPS,ioos:station:USF.COMPS:ARP:1,2016-04-02T00:00:00Z,28.4330,-82.6670,84.48,1111122 
COMPS,ioos:station:USF.COMPS:ARP:1,2016-04-02T00:06:00Z,28.4330,-82.6670,84.94,1111122 
COMPS,ioos:station:USF.COMPS:ARP:1,2016-04-02T00:12:00Z,28.4330,-82.6670,84.84,1111122 
COMPS,ioos:station:USF.COMPS:ARP:1,2016-04-02T00:18:00Z,28.4330,-82.6670,84.74,1111122 
COMPS,ioos:station:USF.COMPS:ARP:1,2016-04-02T00:24:00Z,28.4330,-82.6670,84.92,1111122 
COMPS,ioos:station:USF.COMPS:ARP:1,2016-04-02T00:30:00Z,28.4330,-82.6670,84.99,1111122 
COMPS,ioos:station:USF.COMPS:ARP:1,2016-04-02T00:36:00Z,28.4330,-82.6670,84.73,1111122 
COMPS,ioos:station:USF.COMPS:ARP:1,2016-04-02T00:42:00Z,28.4330,-82.6670,84.56,1111122 
COMPS,ioos:station:USF.COMPS:ARP:1,2016-04-02T00:48:00Z,28.4330,-82.6670,85.2,1111122 
COMPS,ioos:station:USF.COMPS:ARP:1,2016-04-02T00:54:00Z,28.4330,-82.6670,86.06,1111122 
COMPS,ioos:station:USF.COMPS:ARP:1,2016-04-02T01:00:00Z,28.4330,-82.6670,86.74,1111122 
COMPS,ioos:station:USF.COMPS:ARP:1,2016-04-02T01:06:00Z,28.4330,-82.6670,87.01,1111122 
COMPS,ioos:station:USF.COMPS:ARP:1,2016-04-02T01:12:00Z,28.4330,-82.6670,87.1,1111122 
COMPS,ioos:station:USF.COMPS:ARP:1,2016-04-02T01:18:00Z,28.4330,-82.6670,87.34,1111122 
COMPS,ioos:station:USF.COMPS:ARP:1,2016-04-02T01:24:00Z,28.4330,-82.6670,87.32,1111122 
COMPS,ioos:station:USF.COMPS:ARP:1,2016-04-02T01:30:00Z,28.4330,-82.6670,86.41,1111122 
COMPS,ioos:station:USF.COMPS:ARP:1,2016-04-02T01:36:00Z,28.4330,-82.6670,85.61,1111122 
COMPS,ioos:station:USF.COMPS:ARP:1,2016-04-02T01:42:00Z,28.4330,-82.6670,84.33,1111122 
COMPS,ioos:station:USF.COMPS:ARP:1,2016-04-02T01:48:00Z,28.4330,-82.6670,83.21,1111122 
COMPS,ioos:station:USF.COMPS:ARP:1,2016-04-02T01:54:00Z,28.4330,-82.6670,81.77,1111122 
COMPS,ioos:station:USF.COMPS:ARP:1,2016-04-02T02:00:00Z,28.4330,-82.6670,80.84,1111122 
COMPS,ioos:station:USF.COMPS:ARP:1,2016-04-02T02:06:00Z,28.4330,-82.6670,80.64,1111122 
COMPS,ioos:station:USF.COMPS:ARP:1,2016-04-02T02:12:00Z,28.4330,-82.6670,80.84,1111122 
COMPS,ioos:station:USF.COMPS:ARP:1,2016-04-02T02:18:00Z,28.4330,-82.6670,81.01,1111122 
COMPS,ioos:station:USF.COMPS:ARP:1,2016-04-02T02:24:00Z,28.4330,-82.6670,81.86,1111122 
COMPS,ioos:station:USF.COMPS:ARP:1,2016-04-02T02:30:00Z,28.4330,-82.6670,82.56,1111122 
COMPS,ioos:station:USF.COMPS:ARP:1,2016-04-02T02:36:00Z,28.4330,-82.6670,83.17,1111122 
COMPS,ioos:station:USF.COMPS:ARP:1,2016-04-02T02:42:00Z,28.4330,-82.6670,84.04,1111122 
COMPS,ioos:station:USF.COMPS:ARP:1,2016-04-02T02:48:00Z,28.4330,-82.6670,84.51,1111122 
COMPS,ioos:station:USF.COMPS:ARP:1,2016-04-02T02:54:00Z,28.4330,-82.6670,84.82,1111122 
COMPS,ioos:station:USF.COMPS:ARP:1,2016-04-02T03:00:00Z,28.4330,-82.6670,85.37,1111122 
COMPS,ioos:station:USF.COMPS:ARP:1,2016-04-02T03:06:00Z,28.4330,-82.6670,85.8,1111122 